Terminal Aerodrome Forecast
Issued by NWS Brownsville, TX

Home | Current Version | Previous Version | Text Only | Print | Product List | Glossary On
Versions: 1 2 3 4 5 6 7 8 9 10 11 12 13 14 15 16 17 18 19 20 21 22 23 24
000
FTUS44 KBRO 250818 AAA
TAFMFE
TAF AMD
KMFE 250818Z 2508/2606 15008KT P6SM OVC009
      TEMPO 2509/2512 5SM HZ
     FM251500 15015KT P6SM BKN025
     FM251800 14015G20KT P6SM SCT025 BKN250
     FM260000 13013KT P6SM BKN250
     FM260200 13014KT P6SM BKN015=

USA.gov is the U.S. government's official web portal to all federal, state and local government web resources and services.